Weather History for Clarinda, IA

Change the Weather History Date:

Friday, February 14, 2014

  Actual Average Record
Temperature  
Mean Temperature 19 °F -  
Max Temperature 28 °F 39 °F 62 °F (1999)
Min Temperature 10 °F 21 °F 0 °F (2007)
Degree Days  
Heating Degree Days 46    
Moisture  
Dew Point 16 °F    
Average Humidity 82    
Maximum Humidity 93    
Minimum Humidity 59    
Precipitation  
Precipitation 0.00 in - - ()
Sea Level Pressure  
Sea Level Pressure 29.93 in    
Wind  
Wind Speed 9 mph (North)    
Max Wind Speed 20 mph    
Max Gust Speed 25 mph    
Visibility 10 miles    
Events Rain , Snow    
Averages and records for this station are not official NWS values.
T = Trace of Precipitation, MM = Missing Value Source: NWS Daily Summary

Daily Weather History Graph

Daily Weather History Graph

Search for Another Location

Airport:

Trip Planner

Search our weather history database for the weather conditions in past years. The results will help you decide how hot, cold, wet, or windy it might be!

Date:

Astronomy

Feb. 14, 2014 Rise Set
Actual Time 7:15 AM CST 5:53 PM CST
Civil Twilight 6:47 AM CST 6:21 PM CST
Nautical Twilight 6:15 AM CST 6:54 PM CST
Astronomical Twilight 5:43 AM CST 7:25 PM CST
Moon 5:58 PM CST (2/14) 6:42 AM CST (2/14)
Length of Visible Light 11h 34m
Length of Day
10h 38m
Full, 100% of the Moon is Illuminated
Feb 14
Full
Feb 14
Full
Feb 22
Last Quarter
Mar 1
New
Mar 8
First Quarter

Hourly Weather History & Observations

Time (CST) Temp. Windchill Dew Point Humidity Pressure Visibility Wind Dir Wind Speed Gust Speed Precip Events Conditions
12:15 AM 28.4 °F - 21.2 °F 74% 29.72 in 10.0 mi Calm Calm - N/A   Overcast
12:35 AM 28.4 °F 22.2 °F 21.2 °F 74% 29.73 in 10.0 mi Variable 5.8 mph - N/A   Overcast
12:55 AM 28.4 °F 20.4 °F 21.2 °F 74% 29.72 in 10.0 mi East 8.1 mph - N/A   Overcast
1:15 AM 28.4 °F 20.4 °F 21.2 °F 74% 29.73 in 10.0 mi NE 8.1 mph - N/A   Overcast
1:35 AM 28.4 °F 20.4 °F 21.2 °F 74% 29.75 in 10.0 mi NE 8.1 mph - N/A   Overcast
1:55 AM 28.4 °F 20.4 °F 19.4 °F 69% 29.75 in 10.0 mi NE 8.1 mph - N/A Rain Light Freezing Rain
2:15 AM 24.8 °F 13.4 °F 23.0 °F 93% 29.69 in 0.8 mi ENE 12.7 mph - N/A Snow Light Snow
2:35 AM 24.8 °F 15.3 °F 23.0 °F 93% 29.65 in 8.0 mi ENE 9.2 mph 15.0 mph N/A   Overcast
2:55 AM 24.8 °F 16.1 °F 23.0 °F 93% 29.65 in 10.0 mi NNE 8.1 mph 16.1 mph N/A   Overcast
3:15 AM 24.8 °F 16.1 °F 23.0 °F 93% 29.67 in 10.0 mi NNE 8.1 mph - N/A   Overcast
3:35 AM 24.8 °F 15.3 °F 23.0 °F 93% 29.70 in 10.0 mi NNE 9.2 mph - N/A   Overcast
3:55 AM 24.8 °F 14.6 °F 23.0 °F 93% 29.67 in 6.0 mi NE 10.4 mph - N/A Rain Light Freezing Rain
4:15 AM 24.8 °F 16.1 °F 23.0 °F 93% 29.65 in 10.0 mi East 8.1 mph 13.8 mph N/A Rain Light Freezing Rain
4:35 AM 24.8 °F 16.9 °F 23.0 °F 93% 29.64 in 10.0 mi ENE 6.9 mph - N/A   Overcast
4:55 AM 24.8 °F 14.0 °F 23.0 °F 93% 29.65 in 10.0 mi NNE 11.5 mph 17.3 mph N/A   Overcast
5:15 AM 24.8 °F 13.4 °F 21.2 °F 86% 29.68 in 10.0 mi North 12.7 mph - N/A   Overcast
5:35 AM 23.0 °F 11.1 °F 21.2 °F 93% 29.71 in 10.0 mi North 12.7 mph - N/A   Overcast
5:55 AM 23.0 °F 9.6 °F 19.4 °F 86% 29.73 in 10.0 mi North 16.1 mph - N/A   Overcast
6:15 AM 23.0 °F 9.6 °F 19.4 °F 86% 29.76 in 10.0 mi North 16.1 mph 24.2 mph N/A   Overcast
6:35 AM 21.2 °F 6.0 °F 17.6 °F 86% 29.78 in 10.0 mi North 19.6 mph - N/A   Overcast
6:55 AM 21.2 °F 7.3 °F 19.4 °F 93% 29.81 in 5.0 mi North 16.1 mph 23.0 mph N/A Snow Light Snow
7:15 AM 21.2 °F 7.3 °F 19.4 °F 93% 29.82 in - North 16.1 mph - N/A Snow Light Snow
7:35 AM 19.4 °F 5.0 °F 17.6 °F 93% 29.83 in 3.0 mi North 16.1 mph - N/A   Scattered Clouds
7:55 AM 19.4 °F 4.1 °F 17.6 °F 93% 29.84 in 4.0 mi North 18.4 mph - N/A   Scattered Clouds
8:15 AM 19.4 °F 5.5 °F 17.6 °F 93% 29.86 in 9.0 mi North 15.0 mph - N/A   Overcast
8:35 AM 19.4 °F 4.5 °F 15.8 °F 86% 29.88 in 10.0 mi North 17.3 mph - N/A   Mostly Cloudy
8:55 AM 19.4 °F 6.6 °F 15.8 °F 86% 29.89 in 10.0 mi North 12.7 mph - N/A   Mostly Cloudy
9:15 AM 19.4 °F 5.0 °F 15.8 °F 86% 29.91 in 10.0 mi North 16.1 mph - N/A   Overcast
9:35 AM 19.4 °F 5.5 °F 15.8 °F 86% 29.92 in 10.0 mi North 15.0 mph - N/A   Overcast
9:55 AM 19.4 °F 6.0 °F 15.8 °F 86% 29.93 in 10.0 mi North 13.8 mph 21.9 mph N/A   Overcast
10:15 AM 19.4 °F 5.5 °F 15.8 °F 86% 29.95 in 10.0 mi North 15.0 mph - N/A   Overcast
10:35 AM 19.4 °F 4.1 °F 14.0 °F 80% 29.96 in 10.0 mi North 18.4 mph 25.3 mph N/A   Overcast
10:55 AM 19.4 °F 5.5 °F 14.0 °F 80% 29.97 in 10.0 mi North 15.0 mph 23.0 mph N/A   Overcast
11:15 AM 19.4 °F 5.0 °F 15.8 °F 86% 29.98 in 10.0 mi North 16.1 mph - N/A   Overcast
11:35 AM 21.2 °F 7.3 °F 15.8 °F 80% 29.98 in 10.0 mi NNW 16.1 mph - N/A   Mostly Cloudy
11:55 AM 21.2 °F 7.3 °F 15.8 °F 80% 30.00 in 10.0 mi North 16.1 mph - N/A   Scattered Clouds
12:15 PM 21.2 °F 6.4 °F 15.8 °F 80% 30.00 in 10.0 mi North 18.4 mph - N/A   Mostly Cloudy
12:35 PM 23.0 °F 9.6 °F 15.8 °F 74% 30.00 in 10.0 mi North 16.1 mph - N/A   Mostly Cloudy
12:55 PM 23.0 °F 9.2 °F 15.8 °F 74% 30.01 in 10.0 mi North 17.3 mph 23.0 mph N/A   Scattered Clouds
1:15 PM 23.0 °F 10.6 °F 17.6 °F 80% 30.00 in 10.0 mi North 13.8 mph - N/A   Mostly Cloudy
1:35 PM 23.0 °F 8.3 °F 15.8 °F 74% 30.01 in 10.0 mi NNW 19.6 mph - N/A   Mostly Cloudy
1:55 PM 24.8 °F 11.5 °F 17.6 °F 74% 30.01 in 10.0 mi NNW 17.3 mph - N/A   Mostly Cloudy
2:15 PM 24.8 °F 12.4 °F 17.6 °F 74% 30.01 in 10.0 mi NNW 15.0 mph - N/A   Mostly Cloudy
2:35 PM 24.8 °F 11.5 °F 17.6 °F 74% 30.02 in 10.0 mi NNW 17.3 mph - N/A   Mostly Cloudy
2:55 PM 24.8 °F 11.5 °F 17.6 °F 74% 30.03 in 10.0 mi NW 17.3 mph - N/A   Scattered Clouds
3:15 PM 24.8 °F 11.9 °F 17.6 °F 74% 30.03 in 10.0 mi North 16.1 mph - N/A   Scattered Clouds
3:35 PM 24.8 °F 12.9 °F 15.8 °F 69% 30.04 in 10.0 mi NNW 13.8 mph 23.0 mph N/A   Partly Cloudy
3:55 PM 26.6 °F 14.7 °F 15.8 °F 64% 30.05 in 10.0 mi NNW 15.0 mph 20.7 mph N/A   Clear
4:15 PM 24.8 °F 14.0 °F 15.8 °F 69% 30.05 in 10.0 mi NNW 11.5 mph - N/A   Clear
4:35 PM 26.6 °F 15.7 °F 15.8 °F 64% 30.06 in 10.0 mi NNW 12.7 mph - N/A   Clear
4:55 PM 26.6 °F 16.8 °F 15.8 °F 64% 30.06 in 10.0 mi NW 10.4 mph - N/A   Clear
5:15 PM 26.6 °F 16.8 °F 14.0 °F 59% 30.07 in 10.0 mi NNW 10.4 mph 17.3 mph N/A   Clear
5:35 PM 24.8 °F 15.3 °F 14.0 °F 64% 30.08 in 10.0 mi North 9.2 mph - N/A   Clear
5:55 PM 24.8 °F 16.9 °F 14.0 °F 64% 30.08 in 10.0 mi North 6.9 mph - N/A   Clear
6:15 PM 23.0 °F 15.8 °F 14.0 °F 68% 30.08 in 10.0 mi NNW 5.8 mph - N/A   Clear
6:35 PM 21.2 °F 13.6 °F 14.0 °F 74% 30.09 in 10.0 mi NNW 5.8 mph - N/A   Clear
6:55 PM 21.2 °F 12.6 °F 14.0 °F 74% 30.09 in 10.0 mi North 6.9 mph - N/A   Clear
7:15 PM 19.4 °F 11.5 °F 12.2 °F 74% 30.09 in 10.0 mi North 5.8 mph - N/A   Clear
7:35 PM 17.6 °F - 12.2 °F 79% 30.08 in 10.0 mi Calm Calm - N/A   Clear
7:55 PM 14.0 °F - 12.2 °F 93% 30.08 in 10.0 mi Calm Calm - N/A   Clear
8:15 PM 17.6 °F 12.3 °F 12.2 °F 79% 30.10 in 10.0 mi West 3.5 mph - N/A   Clear
8:35 PM 12.2 °F - 8.6 °F 85% 30.10 in 10.0 mi Calm Calm - N/A   Clear
8:55 PM 12.2 °F - 10.4 °F 92% 30.10 in 10.0 mi Calm Calm - N/A   Clear
9:15 PM 12.2 °F 6.1 °F 10.4 °F 92% 30.13 in 10.0 mi WSW 3.5 mph - N/A   Clear
9:35 PM 10.4 °F - 8.6 °F 92% 30.13 in 10.0 mi Calm Calm - N/A   Clear
9:55 PM 12.2 °F - 8.6 °F 85% 30.13 in 10.0 mi Calm Calm - N/A   Clear
10:15 PM 10.4 °F - 8.6 °F 92% 30.12 in 10.0 mi Calm Calm - N/A   Clear
10:35 PM 12.2 °F - 8.6 °F 85% 30.11 in 10.0 mi Calm Calm - N/A   Clear
10:55 PM 10.4 °F - 8.6 °F 92% 30.11 in 10.0 mi Calm Calm - N/A   Clear
11:15 PM 10.4 °F - 8.6 °F 92% 30.11 in 10.0 mi Calm Calm - N/A   Clear
11:35 PM 10.4 °F - 8.6 °F 92% 30.10 in 10.0 mi Calm Calm - N/A   Clear
11:55 PM 10.4 °F - 8.6 °F 92% 30.10 in 10.0 mi Calm Calm - N/A   Clear